Lid_Strength_Index
10 10 10 9 9 10 10 9 8 8 6 5 3 0 0 0 0 1 1 2 2 3
10 10 10 10 9 9 9 9 9 8 7 6 4 3 2 2 2 2 2 3 3 3
11 11 10 10 10 9 9 9 9 8 7 6 5 4 3 2 2 2 3 3 3 3
12 11 11 11 10 10 9 9 8 8 7 6 6 4 4 3 3 3 5 5 5 6
11 11 11 11 11 10 10 9 9 8 7 7 7 6 4 5 5 6 7 7 7 7
11 11 11 11 11 11 10 9 9 9 9 9 8 8 8 8 8 8 9 8 8 7
10 11 11 11 11 11 10 10 10 10 9 9 8 8 8 8 9 9 9 9 9 9
10 10 11 11 11 10 10 10 10 10 10 9 9 8 9 9 9 10 11 11 11 12
10 10 11 11 11 11 11 11 10 10 10 10 10 10 9 9 10 10 10 10 11 10
12 12 11 11 11 11 11 11 11 11 10 11 11 10 10 10 9 9 10 11 11 12
11 12 12 12 10 11 11 11 11 11 10 10 11 10 10 10 9 10 10 11 11 11
11 12 12 12 11 11 11 11 11 11 11 11 11 11 10 10 11 11 12 11 11 11
12 12 12 12 12 12 12 13 12 13 12 12 12 11 11 10 11 12 13 13 12 12
13 13 12 12 13 12 13 13 13 13 13 13 12 11 11 11 11 12 12 13 13 13